Wind_Speed
43 43 44 44 44 44 44 44 44 44 44 44 44 45 45 46 46 47 47 47 47 48 48 47 47 48 48 49 49 49 50 50 50 51 51 52 52 53 53 55 55 56 57 58 60 61 62 63 65 66 66 67 68 68 69 69 68 68 66 65 64 62 61 60 59 58 58 58 56 55 55 54 53 51 51 52 51 50 50 50 49 51 55 54 53 52 52 53
43 44 44 44 44 44 44 44 44 44 44 44 44 44 45 45 45 46 47 47 47 47 47 47 47 48 48 49 49 50 50 51 51 51 52 53 53 54 55 56 57 58 60 61 62 63 65 66 66 67 67 67 67 66 65 63 61 59 57 56 55 54 53 51 49 49 49 49 48 48 47 47 46 46 47 48 48 48 48 48 48 50 53 51 50 50 51 52
43 43 43 44 44 44 44 43 44 44 43 43 43 43 43 44 44 45 46 46 47 47 47 47 47 48 49 49 49 51 51 51 52 53 53 54 54 55 57 58 59 60 62 63 64 65 66 67 66 66 64 62 61 59 57 55 52 51 49 48 47 46 45 42 41 41 41 41 41 41 41 42 42 43 45 46 47 47 45 46 47 48 50 49 48 49 50 51
41 42 42 42 42 42 42 42 42 42 41 42 42 42 43 43 44 45 46 46 47 47 48 48 49 49 49 50 50 51 52 52 53 54 55 55 56 57 58 60 61 63 64 65 65 65 65 64 62 60 57 54 52 50 49 47 45 44 42 41 39 38 37 34 34 34 34 35 36 36 38 39 40 42 43 44 45 45 44 44 45 46 48 49 47 48 50 52
39 40 40 40 40 40 40 40 40 40 40 41 41 42 43 44 45 45 46 47 48 48 49 49 50 50 50 50 51 52 53 54 55 56 56 57 58 59 61 62 63 64 65 65 64 61 59 57 54 51 48 45 44 42 41 39 38 37 35 34 32 31 30 28 28 29 29 31 33 35 37 38 40 41 42 41 41 43 43 43 44 45 46 48 48 48 50 52
36 37 37 37 37 37 38 38 38 39 40 41 42 43 44 45 46 46 47 48 49 49 49 49 50 50 50 51 52 53 54 55 57 58 59 60 61 62 63 63 63 63 61 59 56 52 49 47 44 42 40 37 36 34 33 32 31 30 28 27 26 25 24 23 24 26 28 30 33 36 37 37 39 40 40 38 38 41 43 43 44 45 46 48 49 50 50 52
32 33 34 34 34 35 37 38 39 40 42 43 43 44 45 46 46 47 47 48 49 49 49 50 51 51 51 52 53 54 56 57 59 60 61 61 62 63 62 61 59 56 52 48 45 42 39 37 35 33 31 29 28 26 26 25 24 24 23 22 21 21 20 21 23 25 27 29 32 35 36 36 36 38 38 36 37 40 42 45 45 46 47 49 50 51 52 53
30 31 32 33 35 36 38 40 41 42 43 44 45 45 46 46 47 48 48 49 49 49 50 51 52 52 53 54 55 56 57 59 60 61 61 61 61 59 56 52 48 44 40 37 34 31 29 27 26 24 22 21 20 19 19 18 18 17 17 17 17 17 19 20 22 24 26 27 31 34 35 36 35 37 39 37 37 40 43 46 47 47 49 51 52 54 55 57
31 33 34 36 37 39 41 42 43 43 44 45 45 45 46 47 47 48 49 49 50 50 51 52 53 54 55 56 57 58 59 59 59 59 57 55 51 47 43 39 35 31 28 26 23 21 19 17 16 15 14 13 13 13 13 13 13 13 14 15 15 17 19 20 22 25 27 28 31 35 37 36 35 36 40 40 39 42 45 48 49 49 51 54 56 58 59 60
34 35 36 37 39 40 42 43 43 44 44 45 45 46 47 48 48 49 49 50 51 52 53 54 55 56 57 57 58 58 57 55 52 49 45 41 37 33 29 26 23 20 17 15 13 11 10 9 9 9 8 8 9 10 11 11 13 13 15 17 17 18 21 22 24 27 28 30 32 37 40 37 36 37 40 44 43 44 47 50 52 53 55 57 59 61 62 63
35 36 38 38 39 41 42 43 44 45 45 46 46 47 48 49 49 50 51 52 53 53 54 55 55 56 55 54 53 50 47 42 38 34 30 26 23 20 17 15 13 10 8 7 6 5 5 5 6 7 7 9 10 11 13 14 15 17 18 20 20 21 24 27 28 30 31 33 34 40 43 42 40 40 42 46 48 48 50 52 55 56 58 60 62 64 65 66
35 37 38 39 40 41 42 43 44 45 46 47 47 48 49 49 50 51 52 52 53 53 52 52 50 48 46 42 39 35 31 27 24 20 17 15 12 10 7 5 4 3 3 4 4 4 5 6 7 8 10 11 13 14 16 17 19 21 22 24 25 24 27 31 32 33 35 36 37 41 46 47 45 44 45 47 51 52 53 55 57 60 61 63 65 67 69 70
35 37 38 39 40 41 42 43 44 45 46 47 47 48 48 48 48 48 48 47 46 45 42 40 37 34 30 27 24 21 18 16 13 10 8 6 3 2 1 1 2 2 2 3 4 5 7 8 9 11 13 14 16 18 19 21 22 24 26 28 29 28 29 33 36 38 38 39 41 42 46 50 52 50 50 51 53 56 58 59 61 63 65 67 68 70 72 73
35 36 38 39 40 40 41 42 42 42 42 42 42 41 41 40 39 38 36 34 32 30 27 24 22 20 17 15 13 10 8 6 3 2 0 0 1 1 1 0 1 2 3 5 7 8 10 11 13 14 16 17 19 21 23 25 26 28 29 31 34 35 34 35 39 42 43 44 45 46 48 51 55 57 57 57 58 59 62 64 65 67 68 70 72 74 76 77
31 32 33 33 34 34 34 34 33 32 32 31 30 29 28 27 25 24 22 20 18 16 14 12 11 10 8 6 4 3 2 2 3 3 3 2 1 1 2 3 4 5 7 8 10 12 14 15 17 18 20 21 23 24 27 29 31 32 34 36 37 39 41 41 43 46 48 50 50 51 53 54 56 60 62 63 64 65 67 68 70 71 73 74 76 78 80 81
23 23 23 23 23 23 23 23 22 21 21 20 19 18 17 16 14 13 12 10 9 7 6 4 4 3 3 4 4 4 4 4 4 3 2 1 2 4 5 7 8 9 11 13 14 16 18 20 21 23 24 26 27 29 31 33 35 36 38 41 42 43 46 47 48 50 52 54 56 56 57 59 60 62 65 67 69 70 72 73 75 76 78 79 81 82 83 85
14 14 14 14 14 14 14 14 14 13 13 12 12 11 10 9 7 7 6 5 5 6 6 6 6 6 6 6 5 5 3 2 1 1 2 4 6 8 9 11 12 14 15 17 19 20 22 24 25 27 28 30 32 33 35 37 39 41 42 45 47 47 49 52 54 56 57 58 61 62 62 63 64 65 67 70 73 74 76 78 79 81 83 85 86 87 87 89
9 9 10 10 10 10 10 9 9 8 8 8 9 9 9 9 9 9 9 9 9 9 9 9 8 7 6 5 4 3 1 1 3 5 7 9 11 12 13 15 16 17 19 20 22 24 26 28 30 31 33 35 36 38 40 42 43 46 47 49 52 53 53 55 57 60 63 64 66 67 68 68 69 70 72 74 76 78 80 82 83 85 87 89 90 91 91 92
9 10 11 13 14 14 15 15 15 14 14 13 13 14 14 13 13 13 13 12 11 11 10 9 8 6 4 2 2 3 4 6 7 9 11 12 13 15 17 18 19 21 23 25 27 29 30 32 34 36 38 39 41 42 44 47 48 49 52 53 55 58 60 60 61 62 65 68 70 72 74 74 74 75 77 78 81 83 85 86 88 89 90 92 93 94 95 96
14 16 17 18 19 20 21 21 21 20 20 19 18 17 17 16 15 14 14 13 11 10 8 8 7 5 5 5 6 7 8 10 11 12 14 15 17 19 20 22 24 25 27 29 31 33 35 37 39 41 43 44 46 47 49 51 52 54 56 57 58 60 64 66 66 66 67 69 72 75 79 80 79 80 82 84 85 87 89 91 93 94 95 96 97 97 98 99
20 21 22 22 23 23 24 24 24 24 23 22 21 20 19 17 15 15 14 12 11 9 9 8 7 7 7 8 9 10 11 12 14 16 17 19 21 23 24 26 28 30 32 33 35 37 39 41 43 45 47 49 50 52 53 55 57 58 60 62 63 64 67 70 72 72 72 73 75 77 81 85 86 86 88 89 90 91 92 94 97 98 99 99 99 100 100 101
25 25 25 25 25 25 25 25 24 24 24 23 21 20 19 17 16 15 13 12 11 10 9 8 8 8 9 10 12 13 14 15 17 19 21 23 25 27 29 31 33 35 37 38 40 42 44 46 48 50 52 54 56 57 58 60 61 63 65 66 68 69 70 73 77 78 77 76 77 79 82 86 90 91 92 93 93 94 95 96 98 99 100 100 100 100 100 101
28 28 27 27 26 26 26 25 24 23 23 22 20 19 18 16 15 14 11 10 9 8 7 7 8 9 10 13 15 16 18 20 22 24 26 28 30 31 33 35 37 40 42 43 45 47 49 51 53 55 57 59 61 62 63 65 65 67 68 70 71 73 73 74 77 80 82 81 80 81 83 86 92 95 96 96 96 96 97 97 98 99 99 99 99 99 100 100
29 29 28 27 26 26 25 24 23 22 21 20 18 17 15 14 12 10 7 6 6 6 7 9 11 12 14 17 18 21 23 26 27 29 31 33 35 36 38 40 42 44 46 48 50 52 53 55 57 59 61 63 64 66 67 68 69 70 71 73 74 76 77 77 78 80 82 84 84 84 84 86 92 97 98 99 99 99 99 99 99 99 99 99 99 100 101 102
29 28 27 26 25 24 23 22 20 20 19 17 15 13 11 9 7 6 6 7 7 10 12 14 15 17 20 22 23 25 28 30 32 34 36 38 40 41 43 45 46 48 50 52 53 55 57 59 60 62 64 65 67 68 70 71 73 74 75 76 78 79 80 81 81 81 82 84 86 87 87 87 91 98 101 101 102 102 102 101 101 101 101 101 102 102 103 104
27 25 24 23 23 21 19 18 17 16 14 12 11 9 7 6 6 7 9 11 11 13 16 18 20 22 24 27 28 30 32 34 36 38 40 42 44 46 47 49 50 52 54 55 57 59 60 62 64 65 67 68 70 71 72 73 74 75 77 78 80 81 82 83 84 85 85 86 88 90 90 89 90 98 102 101 102 103 102 101 100 99 100 101 102 102 102 102
23 22 21 20 18 17 15 13 12 11 10 8 7 7 7 8 9 10 12 14 15 17 19 21 24 26 28 30 32 34 36 39 40 41 43 46 47 49 51 52 54 56 58 59 61 63 64 65 67 68 69 70 71 72 73 74 75 76 78 80 81 83 84 85 86 87 86 87 88 90 91 90 90 97 102 99 98 98 98 98 97 97 98 100 101 101 100 99
20 18 17 15 14 12 10 9 8 8 8 7 7 8 9 10 12 13 16 18 19 22 24 26 28 29 31 33 35 37 39 42 44 45 47 49 50 52 54 56 58 59 61 62 63 64 65 66 67 69 70 71 72 74 75 76 77 78 80 81 82 83 83 84 85 85 85 86 88 89 90 91 91 97 102 98 95 95 95 95 95 97 100 101 101 100 99 99
16 14 12 11 9 8 7 7 8 8 9 9 10 12 13 14 16 18 20 22 24 26 29 31 33 34 36 38 39 41 43 44 46 48 50 52 53 55 56 58 59 60 61 62 64 65 67 68 70 71 73 75 76 77 77 78 78 78 79 80 81 82 82 83 84 84 84 85 88 89 90 92 93 97 100 98 95 94 93 92 93 96 98 99 99 98 98 98
11 10 8 7 6 6 7 8 9 11 12 13 14 16 18 19 21 23 25 26 28 31 32 34 36 38 40 41 43 44 46 47 49 50 52 53 54 55 56 57 58 60 62 64 66 68 69 71 72 73 74 75 76 77 77 77 77 78 79 79 80 81 82 83 84 85 85 86 88 90 92 94 95 97 99 98 96 95 93 91 91 93 95 96 96 95 95 96
7 6 6 6 7 9 10 11 13 14 16 17 19 21 22 24 26 28 30 31 33 34 36 37 39 40 42 43 45 47 49 50 52 53 54 55 57 58 59 60 62 64 66 68 70 70 71 71 71 72 72 73 74 75 77 78 78 79 80 80 80 80 81 82 83 84 84 85 87 89 91 94 96 97 97 97 97 97 97 95 92 92 94 95 95 96 95 95
6 7 7 9 10 12 13 15 17 18 20 21 23 24 26 28 30 31 32 34 35 37 38 40 41 43 44 46 47 49 50 51 53 54 55 57 59 60 62 62 62 63 64 65 67 69 70 71 71 72 73 73 73 74 76 78 80 81 82 83 83 82 81 80 81 82 81 82 84 87 89 92 95 96 96 96 96 97 99 99 97 97 97 97 97 97 96 96
8 9 10 12 13 15 17 19 20 22 23 25 26 27 29 31 32 33 34 36 38 40 41 42 44 45 46 47 48 49 50 52 53 55 57 58 59 59 60 60 60 60 61 62 63 66 69 70 72 73 74 75 75 74 75 76 78 81 82 84 85 86 84 82 81 82 81 79 79 82 86 88 92 94 94 94 94 95 97 98 100 101 101 101 100 99 98 98
10 12 13 15 17 18 20 21 23 24 26 27 29 30 31 32 34 35 37 39 41 42 43 44 45 46 47 48 49 51 52 54 55 56 57 57 58 58 58 58 59 60 61 62 63 65 68 70 71 72 74 76 77 77 76 77 78 80 82 84 85 87 88 87 86 86 84 80 76 77 81 83 87 90 90 91 92 94 96 97 99 101 102 103 102 101 101 100
13 15 17 18 19 21 22 23 25 26 28 30 31 32 34 35 37 39 40 41 42 43 43 44 45 47 48 50 52 53 54 55 55 55 55 55 55 56 57 57 58 59 60 62 63 64 67 70 72 73 74 75 76 77 77 77 78 79 81 82 83 85 87 88 88 88 89 86 80 77 79 80 83 85 86 88 89 92 94 96 98 101 102 104 104 104 103 103
16 18 19 21 22 23 24 26 27 29 31 32 33 35 37 39 40 41 41 42 42 43 44 45 47 49 51 52 53 54 54 53 53 53 53 54 54 55 56 57 58 58 59 59 60 60 60 65 69 70 71 73 73 75 76 75 76 77 78 79 80 81 84 86 87 87 90 90 85 81 81 81 83 83 83 85 87 89 91 93 96 99 102 104 105 106 106 107
19 20 21 23 24 26 27 29 30 31 33 35 36 38 39 40 40 41 41 42 43 45 47 49 51 52 53 53 53 52 51 51 51 52 53 54 54 54 54 54 55 55 56 56 56 56 54 57 63 66 67 70 70 70 72 72 73 75 75 76 77 78 80 83 87 88 90 89 86 83 83 83 84 85 85 85 86 86 88 90 93 95 99 102 104 105 107 108
21 22 23 25 27 28 29 31 32 34 35 37 38 38 39 40 40 41 42 44 46 48 50 51 52 53 52 51 50 49 49 50 51 51 52 52 52 52 51 51 52 52 53 53 54 54 53 53 58 64 66 68 68 67 68 69 71 72 73 75 77 79 80 81 85 89 92 91 90 88 86 85 87 89 90 90 90 89 89 89 91 93 95 98 100 101 102 104
22 24 25 27 28 30 32 33 35 36 37 37 37 38 39 40 41 43 45 47 49 50 51 52 51 50 49 48 47 48 48 48 48 48 49 50 50 51 51 51 51 51 52 53 54 55 54 52 55 62 67 68 68 67 65 66 68 69 70 73 76 78 80 80 81 86 91 93 95 95 93 89 91 94 96 96 95 95 93 92 92 93 94 95 96 97 97 98
24 26 27 29 31 32 34 35 36 36 36 37 38 39 40 41 43 45 47 49 50 51 51 50 49 47 47 46 46 46 46 47 47 48 49 49 50 50 51 51 52 52 53 55 56 56 57 55 55 61 66 68 68 67 66 67 69 68 68 70 73 75 78 79 77 80 86 91 95 99 97 93 94 97 99 99 99 99 99 98 96 95 95 94 94 93 93 91
26 28 30 31 32 34 35 35 36 37 37 38 39 40 41 44 46 48 49 50 51 50 49 47 46 45 45 44 44 45 46 47 48 49 49 49 49 49 50 51 53 54 56 58 60 61 61 60 59 61 65 67 67 66 67 69 70 69 69 70 72 74 77 79 78 78 81 86 92 97 98 96 96 99 100 100 101 101 102 102 100 98 97 95 93 91 89 86
28 30 31 32 33 34 35 36 37 37 37 38 39 42 44 46 48 49 50 50 49 48 46 45 44 43 43 43 44 46 47 48 49 50 50 50 50 51 53 54 56 58 60 62 64 66 66 64 62 63 65 68 67 66 68 70 69 69 70 71 73 76 79 82 84 84 84 85 90 95 96 96 97 101 102 102 102 103 103 104 103 101 100 99 96 92 89 87
30 31 32 32 33 35 35 36 36 37 38 40 42 44 46 47 49 50 50 48 46 44 43 43 42 42 43 44 46 48 49 50 50 51 52 53 54 55 57 59 62 64 65 67 68 70 70 69 66 63 63 64 64 63 64 66 67 68 68 69 72 74 77 81 85 87 88 88 92 96 97 96 98 101 103 103 103 103 103 103 103 102 100 98 96 93 90 87
30 31 32 33 34 34 35 35 36 38 40 42 44 45 47 49 49 49 47 45 43 42 42 41 41 42 44 46 48 49 50 50 51 53 54 56 59 61 63 65 67 68 69 70 71 72 73 73 71 69 68 66 62 58 57 57 61 64 66 68 70 73 76 79 82 85 87 88 92 97 99 97 97 100 101 102 102 101 100 100 99 98 96 92 89 88 86 84
30 31 32 33 33 33 34 35 37 40 42 43 45 47 48 49 48 46 44 42 41 41 41 41 42 44 46 48 50 51 51 52 53 56 58 61 63 66 68 69 70 72 72 72 72 73 73 73 73 74 77 78 74 70 67 64 65 67 70 73 75 77 79 81 84 86 88 89 90 95 100 98 96 97 98 97 97 95 94 93 92 91 88 85 83 81 79 77
30 32 32 32 32 33 35 37 39 41 43 45 47 48 48 47 45 43 41 41 41 40 41 42 44 47 50 52 52 53 54 55 57 60 63 65 67 69 71 73 74 74 75 75 75 74 73 73 72 73 77 80 78 77 76 75 73 73 75 77 79 81 83 86 89 92 93 93 92 94 99 100 98 97 95 93 92 90 88 87 85 82 80 78 78 76 75 73
30 30 31 31 32 35 37 39 41 42 44 46 47 48 47 44 42 41 41 41 40 41 42 45 47 50 52 53 53 55 57 59 62 64 66 68 71 73 74 76 77 77 77 77 76 75 73 71 69 68 73 77 76 75 76 75 75 77 78 79 81 83 86 89 92 96 98 99 98 96 98 100 99 96 93 91 90 88 85 84 80 76 74 73 72 71 69 68
29 29 30 31 34 36 38 40 42 44 46 47 47 46 44 42 41 40 40 40 40 42 44 47 50 52 52 52 53 56 58 61 64 66 68 69 72 76 78 79 80 80 81 79 78 76 75 73 68 65 69 75 74 74 76 75 76 78 80 81 83 84 87 90 93 98 101 102 102 100 98 99 99 96 92 90 89 87 84 81 76 72 70 68 66 64 63 62
27 28 31 33 35 37 39 41 43 45 46 47 46 43 41 40 40 40 40 40 42 44 47 50 51 52 52 53 56 57 59 60 62 65 68 71 73 76 78 80 82 83 84 83 81 79 77 76 71 65 67 73 74 75 77 77 78 80 82 83 84 85 88 91 95 99 101 101 100 100 98 97 98 96 91 88 88 86 83 80 74 69 67 65 63 60 59 58
27 29 32 34 36 38 40 43 45 46 46 45 43 41 40 40 40 39 40 41 43 47 50 51 51 52 54 56 59 61 62 63 64 66 70 73 75 78 80 82 84 87 88 87 86 84 82 81 77 70 69 72 73 74 78 79 79 81 82 84 85 86 86 89 92 96 100 99 97 97 96 93 92 92 90 88 86 83 81 78 72 67 65 63 60 58 57 56
28 31 33 35 37 39 42 44 45 45 45 43 41 40 40 39 39 39 41 43 46 49 51 51 52 54 56 59 61 64 66 68 70 72 75 77 79 81 84 86 87 89 91 91 90 89 87 86 83 76 71 71 71 73 76 78 78 80 82 84 85 86 85 87 90 95 100 100 96 94 94 92 90 89 88 86 84 81 79 76 70 64 62 61 58 55 54 54
30 32 34 36 39 41 42 44 45 44 42 40 39 39 38 38 39 41 43 46 48 50 51 52 53 56 58 61 64 66 69 72 74 77 80 82 84 86 89 91 92 92 93 93 92 91 90 89 88 82 76 73 73 73 76 79 79 80 82 84 86 87 87 87 90 95 99 99 98 96 94 92 89 86 83 80 77 76 75 72 66 60 59 58 55 53 52 51
Wind_Direction
239 241 243 244 246 248 251 253 256 258 260 261 262 264 265 266 267 268 269 270 271 272 273 274 275 276 277 278 278 279 279 279 279 280 280 280 281 281 281 281 281 281 282 282 282 282 283 283 282 282 282 282 282 281 281 280 280 279 279 278 276 276 274 272 271 270 269 268 267 266 266 266 266 266 266 266 267 267 267 269 270 269 268 269 271 272 271 270
239 241 243 245 247 249 252 254 256 257 259 261 262 263 264 266 267 268 269 271 273 274 275 276 277 277 278 279 279 279 279 280 280 280 280 281 282 282 282 283 284 284 284 285 285 285 284 284 284 284 283 283 283 282 281 281 281 280 279 278 277 276 274 272 270 268 267 266 265 264 264 263 264 264 264 265 266 267 268 270 270 269 269 270 270 270 270 269
239 241 243 245 248 250 252 253 255 257 259 260 262 263 265 266 268 269 270 272 274 275 276 277 277 277 278 279 279 280 280 280 281 281 281 282 283 283 284 285 285 285 285 285 285 285 285 285 285 285 284 284 283 283 282 281 281 280 279 278 276 274 273 271 268 266 264 264 263 262 262 262 262 262 263 265 267 268 269 270 269 269 270 270 270 269 269 269
240 242 244 246 248 250 252 254 256 258 260 261 263 265 267 268 269 271 272 274 274 275 276 277 277 278 279 279 279 280 281 281 282 282 283 284 284 284 285 285 285 285 285 285 285 285 285 285 285 285 284 283 282 282 281 281 280 279 277 276 274 272 271 268 265 263 263 263 262 262 261 262 262 263 264 265 268 269 269 268 268 268 269 270 269 268 269 269
241 243 245 248 250 252 254 256 258 260 262 264 266 268 269 270 271 272 274 274 275 275 276 277 278 279 279 280 280 281 282 282 283 284 284 285 285 285 285 285 285 285 286 286 286 286 285 285 285 284 283 282 281 280 280 279 278 277 275 273 271 269 268 265 264 264 264 265 265 265 264 264 265 265 265 267 269 270 270 268 267 266 266 267 268 267 268 270
243 245 248 250 253 255 258 261 263 265 267 269 270 271 272 272 273 274 274 275 275 276 277 278 279 279 280 280 281 282 282 283 284 284 285 285 285 285 285 286 286 286 286 286 286 286 285 285 284 284 283 282 280 280 279 278 277 275 273 271 270 269 269 268 268 268 268 268 269 269 268 267 268 268 267 268 268 269 269 268 266 265 264 265 267 268 268 270
249 251 254 257 260 263 265 267 269 270 271 271 272 272 273 273 274 275 275 275 276 278 278 278 279 280 280 280 281 282 283 283 284 284 285 285 286 286 287 287 287 286 286 286 285 285 285 284 284 283 283 282 281 280 279 277 276 275 274 274 275 275 276 275 273 272 271 270 270 270 270 270 270 271 271 270 269 268 269 268 267 267 267 267 268 270 270 271
256 258 261 263 265 267 268 269 269 270 270 271 272 272 273 274 274 275 275 276 277 278 278 278 279 279 280 280 280 281 282 282 283 284 285 285 286 286 286 286 285 285 285 285 285 285 286 286 285 285 284 284 283 281 280 280 280 282 283 284 285 285 283 280 278 275 273 272 272 271 271 271 272 274 274 273 271 270 270 270 270 270 271 271 271 271 271 271
260 262 263 264 265 266 267 267 268 268 269 270 271 272 273 274 274 275 276 276 277 277 278 278 278 279 279 280 280 280 281 282 283 283 284 284 284 284 284 284 284 284 285 285 285 287 288 289 290 290 290 290 288 287 290 291 293 295 294 291 290 287 283 280 277 274 273 273 272 273 272 272 272 273 275 275 273 272 272 272 273 273 273 273 272 272 272 272
261 262 263 264 264 265 266 267 267 268 269 270 271 272 272 273 273 274 275 275 276 276 276 277 277 278 279 280 280 281 282 282 282 283 282 282 282 282 283 283 283 284 286 287 290 295 300 303 306 306 303 304 303 302 303 300 298 296 292 289 287 285 282 279 276 275 274 274 274 275 274 274 274 273 274 275 273 272 272 273 273 273 273 273 273 273 273 274
263 263 264 264 264 265 266 267 268 269 269 270 270 271 271 272 273 273 273 274 274 275 275 276 277 278 279 280 281 281 281 281 281 281 281 281 281 281 281 283 284 288 296 304 312 321 323 322 319 314 311 312 306 302 301 296 294 293 290 288 285 284 282 279 277 276 275 275 275 276 276 275 274 272 272 273 274 272 272 272 273 273 273 273 274 274 274 274
263 264 264 265 265 265 266 267 268 268 269 269 269 270 270 271 271 272 272 272 273 274 275 276 277 278 279 279 279 279 278 278 277 277 277 277 277 279 284 292 303 323 338 342 337 331 325 316 314 309 305 305 301 297 296 293 291 289 288 285 282 280 279 279 278 276 274 274 275 276 278 278 275 273 271 271 273 274 273 273 273 274 274 274 274 275 275 275
264 264 265 265 265 265 265 266 266 266 267 267 267 268 268 268 269 270 271 272 272 273 274 275 276 276 276 275 274 273 272 271 270 270 270 271 278 293 343 19 19 12 349 329 315 308 306 301 300 299 298 298 296 294 292 290 288 286 286 285 282 278 276 278 279 278 276 276 276 276 278 281 280 277 275 273 273 274 274 274 273 274 274 275 275 275 276 276
264 264 264 264 264 264 263 263 263 263 263 263 264 264 265 265 266 267 268 269 269 270 270 271 271 270 268 266 263 261 259 258 259 264 263 96 100 98 92 75 303 299 297 300 298 297 296 295 295 294 293 292 291 291 290 289 288 286 286 285 285 284 280 279 280 280 279 278 278 277 277 278 280 281 280 278 276 275 275 275 275 274 274 275 275 275 275 275
261 261 261 260 260 259 259 259 258 258 257 257 257 258 258 259 259 260 260 260 260 260 260 260 258 255 248 242 233 211 172 125 110 105 107 113 135 220 264 279 287 292 294 296 297 297 296 296 295 294 293 292 291 290 290 290 289 288 287 286 285 285 284 282 281 281 281 280 279 278 277 277 277 279 281 280 280 279 278 277 277 276 276 275 275 275 275 276
253 253 253 252 252 251 250 249 247 246 245 244 243 243 242 242 242 242 241 238 234 229 220 206 194 179 157 140 127 121 118 115 122 131 153 208 259 277 285 291 295 298 299 301 301 300 299 298 298 296 295 293 291 290 289 288 287 286 284 284 283 282 282 282 280 279 278 279 278 277 277 277 277 278 279 279 280 280 280 280 279 279 278 278 277 277 277 277
238 237 235 233 231 230 229 228 227 225 223 220 217 213 210 206 199 191 184 173 157 146 137 125 119 114 111 112 115 117 119 129 157 226 266 284 294 299 304 305 306 307 306 304 301 300 298 295 293 291 288 287 286 285 284 283 282 281 281 280 280 279 279 280 281 280 279 279 279 279 278 278 278 278 278 278 279 279 278 278 279 279 278 278 278 278 278 278
208 204 198 192 186 183 178 174 171 169 169 168 162 154 145 139 133 127 121 117 114 111 109 107 105 107 111 119 119 117 107 321 311 310 311 313 313 312 312 309 306 303 299 296 293 291 289 287 285 284 283 282 282 282 281 281 281 282 282 282 282 282 281 280 281 282 283 283 282 282 281 280 280 279 279 278 278 278 278 277 277 277 277 277 277 278 278 278
161 157 153 148 142 137 131 126 122 120 118 119 118 116 114 111 109 107 104 102 102 103 103 103 102 102 103 85 44 9 345 334 328 323 320 316 312 308 304 300 297 294 291 289 287 286 286 285 285 284 284 284 283 283 283 283 282 283 283 283 283 284 283 282 282 282 282 284 284 284 283 282 282 281 280 279 279 278 278 278 277 276 276 276 277 277 278 278
133 130 128 127 124 121 118 114 111 109 107 105 103 102 100 98 98 98 98 97 97 95 91 84 75 60 32 12 359 348 339 331 323 317 312 307 303 300 297 294 292 290 289 288 288 288 288 288 287 287 287 286 285 285 284 284 284 283 283 283 282 282 283 283 282 281 281 282 284 284 285 284 283 282 281 280 279 279 278 278 278 278 277 277 277 278 278 278
118 117 116 116 115 114 112 111 108 106 103 99 97 96 94 93 91 87 85 83 79 72 62 52 40 20 4 352 341 333 326 319 313 308 304 301 298 295 294 293 292 292 291 291 291 290 290 290 289 289 288 288 287 286 286 285 285 284 284 284 284 283 284 284 283 282 281 282 283 284 285 285 284 282 281 280 279 278 278 278 278 278 278 278 278 279 279 279
108 108 108 107 106 105 104 103 102 100 99 97 95 92 90 86 80 74 68 60 54 47 36 25 10 356 344 333 324 319 312 306 303 301 300 299 298 297 297 297 296 296 295 294 294 294 294 293 292 292 291 290 289 288 288 288 287 287 287 287 287 286 286 286 286 285 284 283 283 283 284 285 284 283 281 280 280 279 278 278 278 278 278 279 279 279 280 280
101 100 99 98 97 96 95 94 93 93 92 91 88 84 81 76 71 66 59 47 37 27 13 356 341 333 326 320 315 311 307 306 305 304 303 302 301 301 300 299 299 298 298 297 297 297 296 295 294 294 293 293 292 291 291 290 290 289 289 289 288 288 287 286 287 288 287 287 286 285 285 286 285 284 282 281 281 280 279 279 278 278 278 279 279 280 280 280
93 92 92 91 90 89 88 87 87 86 85 84 82 78 74 69 65 60 50 31 12 354 341 331 324 319 318 316 313 311 310 309 307 306 304 303 302 301 300 300 300 300 300 299 299 298 298 297 296 296 295 295 295 294 294 293 293 292 292 291 290 290 289 288 287 287 288 288 287 286 286 286 285 284 283 282 282 281 281 280 280 281 281 281 282 282 282 281
89 89 88 87 86 85 85 84 84 84 83 81 79 76 72 66 56 41 20 356 337 331 329 324 321 319 317 314 312 310 309 308 308 307 306 305 304 304 304 303 303 302 302 301 301 300 299 298 298 297 297 296 296 296 296 296 296 295 294 293 292 291 290 290 289 288 288 288 288 287 286 286 286 285 283 283 283 283 282 283 283 284 285 285 284 283 282 281
90 88 87 86 85 85 85 85 84 84 83 82 80 75 65 44 19 2 352 341 329 325 324 321 319 318 316 315 313 312 311 310 310 309 309 308 307 307 307 306 305 305 304 303 302 301 301 300 300 300 299 298 298 297 296 296 295 294 293 293 292 292 291 291 291 291 290 289 289 288 287 286 285 284 283 282 283 283 284 285 285 286 286 285 283 282 281 281
88 87 87 87 87 87 86 84 82 79 73 67 58 41 20 3 351 339 332 328 324 322 321 319 318 317 316 315 315 314 313 313 312 311 310 310 309 309 308 308 307 307 306 305 304 303 303 302 301 300 299 297 296 296 295 295 295 294 294 294 293 293 293 293 293 292 292 292 291 290 289 288 287 285 284 284 284 285 287 287 287 287 285 283 282 281 281 281
88 89 89 89 89 87 81 74 65 55 45 32 18 5 353 344 336 330 327 325 323 322 321 320 319 318 317 316 316 315 315 314 313 312 312 311 311 310 310 309 309 308 307 305 304 303 302 301 300 299 298 298 297 297 297 297 297 297 296 295 295 295 294 294 294 294 293 293 292 291 290 290 289 287 287 287 288 288 288 288 288 287 285 285 284 285 285 284
92 92 91 89 85 77 64 51 35 25 15 4 355 347 341 336 333 330 328 327 326 325 324 323 322 321 320 319 318 316 315 314 313 312 312 312 311 311 310 309 308 306 305 304 303 302 302 302 301 301 301 301 301 300 300 300 299 298 298 297 297 297 297 296 296 296 296 296 295 294 292 291 290 290 290 291 291 290 290 289 288 287 286 286 286 285 284 283
95 92 87 77 62 43 29 17 7 2 355 350 345 341 339 336 333 332 331 330 329 327 326 324 323 322 321 319 317 316 315 314 314 313 312 312 311 310 308 307 306 305 305 305 305 305 305 305 304 304 303 303 303 302 302 301 301 300 299 299 299 299 299 299 299 299 299 299 298 297 296 295 294 294 294 295 295 294 293 291 290 289 289 288 287 286 285 284
84 72 57 38 22 12 4 358 355 352 348 345 342 341 339 336 334 333 332 330 328 327 325 324 322 321 319 318 317 317 316 316 316 315 314 314 313 312 312 312 312 311 311 311 310 309 308 307 306 305 305 304 305 304 304 303 303 302 301 300 300 300 300 300 299 299 299 298 297 296 296 296 296 296 297 297 298 298 297 296 295 294 292 291 291 290 289 289
46 32 20 11 4 358 354 352 350 347 344 343 341 339 336 335 334 332 330 328 327 326 324 323 321 320 320 319 319 318 318 318 317 317 317 316 316 316 315 314 313 312 312 311 311 310 310 309 308 308 307 307 307 306 306 306 305 304 303 302 301 300 299 298 297 296 296 295 293 293 294 295 295 295 296 296 296 296 297 297 297 296 294 293 293 293 292 292
19 11 5 360 355 353 351 348 346 344 342 340 337 336 335 334 331 328 328 328 327 326 324 323 322 321 321 321 320 320 320 319 318 318 317 316 315 314 313 312 312 312 312 312 312 312 312 311 311 310 309 308 307 306 306 305 304 303 302 301 300 299 298 297 296 295 293 291 289 288 291 292 292 293 294 293 293 293 294 295 295 295 295 295 295 294 294 294
6 359 355 352 350 349 346 344 343 341 338 336 336 335 332 329 328 329 330 328 327 325 324 324 324 323 323 323 323 322 321 320 319 318 317 316 316 316 316 316 317 317 316 316 315 314 313 312 311 310 308 308 307 306 306 305 303 301 300 299 299 298 298 298 297 296 294 292 288 285 287 287 288 290 291 290 289 290 290 291 292 293 294 294 295 295 295 295
355 351 349 347 346 344 342 341 339 336 335 335 334 331 329 330 331 331 329 327 326 326 325 325 325 325 325 324 324 323 321 320 319 319 318 318 319 320 320 320 320 320 319 318 317 316 314 312 311 309 307 306 306 305 305 304 302 300 299 298 297 297 297 297 297 296 296 295 293 289 287 287 287 288 289 287 287 287 288 288 290 291 292 293 294 295 296 296
348 347 345 343 341 340 339 337 336 336 335 332 331 332 333 333 331 328 327 327 327 327 328 328 328 327 326 324 324 323 322 321 321 321 321 322 323 323 323 323 321 320 319 317 316 315 313 310 309 308 307 306 306 305 305 304 302 301 300 299 299 299 298 298 297 296 296 296 296 294 292 291 289 289 288 287 286 286 286 286 287 289 290 291 292 293 294 294
345 343 340 338 338 337 336 336 335 334 332 332 334 334 332 329 328 328 329 330 330 331 331 330 328 327 326 325 324 324 324 324 324 325 326 326 326 325 324 322 320 318 317 315 314 313 313 313 312 311 310 308 307 307 308 307 306 305 305 304 302 301 300 299 299 298 297 297 297 295 294 293 291 290 289 286 285 284 284 283 284 284 285 287 288 289 290 291
340 337 337 336 335 335 334 333 332 332 334 336 334 330 328 329 331 332 332 333 333 333 331 329 328 327 327 327 327 327 327 328 328 329 328 327 325 323 321 319 318 317 315 315 315 314 314 317 318 316 314 313 312 313 314 314 312 311 310 309 307 305 303 302 302 301 300 300 300 298 297 296 295 294 292 290 288 287 285 285 284 284 284 284 285 286 287 288
335 334 334 334 333 333 333 332 333 336 337 333 329 329 331 334 334 335 335 335 333 331 330 329 329 329 329 329 329 330 330 330 330 328 326 325 324 322 321 319 318 317 317 317 317 317 318 321 323 322 321 319 318 318 318 316 314 313 313 312 310 309 307 306 306 305 304 304 303 302 301 300 299 297 296 296 295 295 294 292 291 290 289 289 288 288 288 287
333 333 333 333 333 333 332 333 335 335 332 329 331 335 336 336 337 336 335 333 332 331 331 330 331 331 332 332 332 331 331 330 328 327 326 325 325 324 322 322 321 321 322 322 322 323 324 325 327 327 325 323 322 321 320 317 316 316 315 313 311 309 307 307 307 307 307 306 305 303 302 302 301 300 300 300 301 301 301 300 299 298 297 296 294 293 292 291
332 333 333 332 332 331 332 333 333 332 332 335 337 338 338 337 337 335 333 333 332 332 332 333 334 334 334 333 331 330 329 329 329 329 329 328 328 327 325 326 327 328 329 329 329 330 329 329 330 329 326 324 323 324 323 322 320 319 317 315 313 312 311 309 308 307 305 305 303 302 302 303 303 302 302 303 304 304 305 305 305 305 303 302 300 299 299 298
332 332 330 330 330 331 332 333 334 335 337 338 338 338 338 337 335 334 334 334 334 335 336 336 336 335 333 331 331 331 332 333 333 332 332 332 333 333 333 334 335 336 336 335 335 334 333 332 333 331 329 327 327 328 327 325 323 321 320 319 316 314 312 310 308 305 303 303 302 301 302 304 305 305 306 307 307 308 308 308 308 309 308 306 305 305 305 304
330 328 328 329 330 331 333 335 336 338 339 339 339 338 337 335 335 335 335 336 337 338 338 337 335 334 333 333 334 335 337 337 337 337 338 339 340 340 341 341 342 342 342 341 340 338 336 334 333 331 329 328 329 330 328 326 324 321 317 314 312 310 309 309 309 308 308 308 307 306 306 308 308 308 309 309 309 310 310 310 310 309 307 307 306 307 306 305
326 326 327 329 331 333 336 337 338 339 339 339 338 337 336 336 336 337 338 339 340 339 337 336 335 335 335 337 339 340 341 342 342 343 344 345 346 346 347 347 348 347 346 344 344 342 339 337 335 333 330 326 325 325 322 322 321 319 316 314 314 314 314 314 314 313 312 311 311 309 308 309 310 309 310 310 311 311 311 310 308 306 305 305 305 305 304 302
325 327 330 332 334 336 337 338 339 340 339 338 336 336 337 337 338 340 341 342 341 339 338 337 337 338 340 342 344 344 345 346 347 348 349 350 350 351 351 350 350 350 348 347 346 344 343 341 339 338 335 330 330 330 327 326 326 325 325 324 324 323 322 320 317 315 313 312 312 311 309 311 312 311 311 311 311 310 309 308 306 305 305 305 306 306 304 301
327 330 332 334 336 337 338 340 340 339 337 336 337 337 338 339 341 343 344 343 341 340 339 340 341 344 346 347 348 348 349 350 352 353 353 353 353 352 352 352 351 351 350 349 348 347 346 345 343 341 337 334 334 335 334 333 332 331 330 329 328 327 326 324 322 319 316 314 313 313 313 314 314 313 313 313 312 311 310 308 307 306 307 308 309 307 305 304
330 332 334 336 338 339 340 340 339 337 337 337 338 339 341 343 345 346 345 343 342 342 342 344 347 349 349 350 351 353 354 354 355 355 354 354 354 354 353 353 352 352 351 350 350 349 348 347 346 344 338 334 334 335 334 334 334 333 331 329 329 328 328 328 325 321 318 316 316 317 317 316 316 316 316 316 315 313 312 310 309 310 311 311 310 307 305 304
332 334 336 338 339 340 340 338 337 337 338 338 339 341 344 347 348 347 346 344 344 345 347 349 350 350 350 352 354 356 356 356 355 354 354 355 355 355 354 353 353 352 352 351 351 351 350 349 348 347 341 336 335 336 335 334 334 333 332 331 330 330 330 328 326 323 321 319 318 319 319 318 318 318 319 319 317 315 314 313 313 314 315 312 309 307 306 305
333 336 338 339 340 339 338 337 337 338 339 340 342 344 348 350 349 348 346 346 346 348 351 352 351 351 352 355 356 356 356 355 355 354 354 355 355 354 354 353 353 352 352 351 351 352 352 351 350 349 346 340 338 337 335 335 336 335 333 332 331 331 331 331 328 324 320 318 319 320 320 320 319 320 321 321 318 318 317 315 315 318 317 313 311 310 309 307
336 338 339 339 339 338 338 338 339 339 340 342 345 348 351 351 349 348 347 347 350 353 353 352 352 353 355 356 356 355 355 354 354 354 355 355 354 354 353 353 352 352 352 352 352 352 352 352 351 350 349 344 341 340 336 335 336 335 333 332 331 330 331 331 327 322 318 318 320 321 321 321 322 322 323 322 320 319 317 315 318 321 318 315 314 313 312 309
338 339 339 339 338 338 338 339 340 340 342 346 349 352 352 351 349 348 348 351 354 354 353 353 354 356 357 357 357 356 355 355 355 355 355 355 354 353 353 352 352 352 352 352 352 352 352 352 351 351 350 345 342 341 337 335 335 334 332 331 329 328 329 328 326 322 320 321 322 323 324 325 325 325 324 322 322 321 318 317 320 322 319 317 317 315 313 312
338 338 339 338 338 338 339 340 340 343 346 349 352 353 353 350 348 349 352 355 355 354 354 355 356 357 358 358 357 356 355 355 355 355 354 354 354 353 352 351 351 351 351 351 351 351 351 352 351 350 349 346 344 342 339 337 336 334 332 330 328 327 327 329 329 325 322 323 325 327 328 327 326 325 324 323 323 321 317 317 321 323 320 319 319 317 315 314
Height
10715 10717 10718 10718 10719 10720 10720 10721 10722 10723 10723 10723 10724 10723 10723 10723 10723 10722 10721 10721 10721 10721 10721 10721 10722 10721 10721 10721 10720 10720 10720 10719 10718 10718 10717 10716 10715 10714 10713 10711 10711 10709 10708 10706 10704 10702 10700 10698 10696 10694 10692 10689 10687 10685 10682 10679 10677 10674 10672 10669 10667 10666 10664 10662 10662 10660 10657 10657 10657 10657 10656 10655 10655 10655 10653 10651 10652 10653 10652 10652 10654 10650 10645 10645 10646 10645 10644 10642
10713 10714 10715 10715 10716 10717 10718 10719 10720 10720 10720 10720 10721 10721 10720 10720 10720 10719 10718 10718 10718 10717 10718 10718 10718 10717 10717 10717 10717 10716 10716 10716 10715 10714 10712 10712 10711 10709 10708 10706 10705 10703 10701 10699 10697 10695 10692 10690 10688 10686 10684 10682 10679 10676 10674 10671 10669 10666 10664 10662 10660 10659 10657 10656 10656 10653 10652 10652 10652 10652 10651 10650 10651 10651 10648 10648 10648 10648 10649 10648 10648 10644 10641 10642 10643 10640 10638 10637
10711 10712 10712 10713 10714 10715 10716 10716 10717 10717 10717 10718 10718 10718 10718 10717 10717 10716 10716 10715 10715 10714 10714 10714 10714 10714 10714 10714 10714 10712 10712 10712 10710 10709 10708 10707 10706 10704 10703 10701 10699 10697 10695 10692 10690 10688 10685 10683 10681 10678 10676 10674 10671 10669 10666 10664 10662 10660 10658 10656 10655 10653 10652 10652 10651 10649 10648 10648 10648 10648 10647 10646 10647 10646 10645 10644 10644 10644 10645 10643 10642 10640 10637 10637 10638 10636 10633 10632
10708 10709 10710 10711 10712 10713 10713 10714 10714 10714 10715 10715 10715 10715 10715 10714 10714 10713 10713 10712 10712 10711 10711 10711 10711 10711 10711 10711 10710 10709 10708 10707 10706 10705 10704 10703 10701 10700 10698 10695 10693 10691 10688 10686 10684 10681 10679 10676 10673 10671 10669 10667 10664 10662 10660 10658 10657 10655 10653 10652 10650 10649 10648 10648 10647 10646 10645 10645 10644 10644 10643 10643 10643 10642 10641 10642 10641 10640 10640 10639 10638 10636 10634 10632 10633 10631 10628 10626
10706 10707 10708 10708 10709 10710 10711 10711 10711 10712 10712 10712 10712 10712 10712 10711 10711 10710 10710 10709 10708 10708 10708 10708 10708 10708 10708 10707 10707 10705 10704 10703 10701 10700 10699 10698 10696 10694 10692 10689 10687 10685 10682 10680 10677 10675 10672 10670 10667 10665 10663 10661 10659 10658 10656 10654 10653 10651 10650 10649 10647 10646 10646 10645 10644 10644 10643 10642 10641 10640 10640 10640 10639 10638 10638 10639 10639 10636 10635 10635 10633 10632 10630 10628 10627 10626 10623 10621
10705 10705 10706 10706 10707 10707 10708 10708 10708 10709 10709 10709 10709 10709 10709 10708 10708 10707 10707 10706 10705 10705 10706 10706 10705 10705 10705 10704 10703 10701 10700 10698 10697 10695 10694 10692 10690 10688 10686 10684 10682 10679 10676 10674 10672 10669 10667 10665 10663 10661 10659 10657 10656 10654 10653 10652 10650 10649 10648 10647 10645 10644 10644 10643 10643 10642 10641 10640 10639 10636 10636 10636 10635 10635 10635 10637 10636 10633 10631 10630 10629 10627 10625 10623 10621 10620 10619 10617
10702 10702 10703 10703 10704 10704 10704 10704 10705 10705 10705 10705 10705 10705 10705 10705 10705 10704 10704 10703 10703 10703 10703 10703 10702 10702 10701 10701 10699 10697 10696 10694 10692 10690 10689 10687 10684 10682 10680 10678 10676 10673 10671 10669 10667 10665 10663 10661 10660 10658 10656 10655 10654 10652 10651 10650 10649 10648 10646 10645 10644 10643 10643 10642 10641 10641 10639 10638 10636 10633 10633 10633 10633 10631 10631 10633 10633 10630 10627 10624 10623 10622 10620 10618 10617 10615 10615 10613
10699 10699 10700 10701 10701 10701 10701 10701 10702 10702 10702 10702 10702 10702 10702 10702 10701 10701 10700 10700 10700 10700 10700 10700 10699 10698 10697 10696 10695 10693 10692 10689 10688 10686 10684 10682 10680 10678 10676 10673 10671 10669 10667 10665 10663 10662 10660 10659 10657 10656 10655 10653 10652 10651 10650 10649 10648 10647 10645 10644 10643 10643 10642 10640 10639 10638 10636 10635 10633 10630 10629 10629 10631 10629 10627 10629 10629 10626 10622 10619 10617 10618 10615 10613 10612 10610 10608 10606
10695 10695 10696 10697 10698 10698 10698 10697 10698 10698 10698 10698 10699 10699 10699 10699 10698 10698 10698 10698 10697 10697 10696 10695 10695 10694 10692 10691 10690 10689 10687 10686 10684 10682 10680 10678 10676 10674 10671 10670 10668 10666 10664 10663 10661 10660 10659 10658 10656 10655 10654 10653 10652 10651 10649 10648 10647 10645 10644 10643 10642 10641 10640 10639 10637 10635 10633 10633 10630 10626 10625 10627 10628 10627 10624 10623 10624 10621 10617 10614 10613 10613 10610 10607 10605 10602 10600 10599
10691 10692 10692 10693 10694 10694 10694 10693 10694 10694 10694 10695 10695 10696 10695 10695 10695 10695 10695 10694 10693 10693 10692 10691 10690 10689 10687 10686 10685 10684 10682 10681 10680 10677 10676 10674 10672 10670 10668 10667 10665 10664 10663 10661 10660 10659 10658 10657 10656 10655 10654 10652 10651 10650 10648 10647 10646 10644 10643 10641 10641 10640 10638 10636 10634 10632 10631 10630 10628 10623 10621 10624 10625 10625 10622 10618 10618 10617 10613 10610 10608 10607 10604 10600 10598 10595 10593 10591
10688 10688 10689 10690 10690 10690 10690 10690 10690 10691 10691 10692 10692 10692 10692 10692 10692 10691 10691 10690 10689 10688 10687 10686 10685 10684 10684 10682 10681 10680 10678 10677 10675 10674 10672 10671 10669 10668 10667 10665 10664 10663 10662 10661 10660 10659 10658 10657 10656 10655 10653 10652 10650 10649 10647 10646 10644 10643 10641 10640 10639 10638 10635 10633 10631 10629 10628 10627 10625 10620 10616 10619 10621 10621 10619 10614 10611 10611 10609 10605 10602 10600 10597 10594 10591 10588 10585 10584
10684 10685 10685 10686 10686 10686 10686 10687 10687 10687 10688 10688 10688 10688 10688 10688 10688 10687 10687 10686 10685 10684 10684 10683 10682 10681 10680 10679 10678 10676 10675 10674 10672 10671 10670 10669 10668 10667 10666 10665 10664 10663 10662 10661 10660 10659 10658 10657 10655 10654 10652 10651 10649 10648 10646 10644 10643 10641 10639 10637 10636 10636 10633 10630 10628 10626 10625 10623 10622 10618 10613 10612 10614 10616 10615 10612 10607 10605 10603 10601 10597 10593 10590 10588 10585 10581 10578 10577
10680 10681 10681 10681 10682 10682 10682 10683 10683 10684 10684 10684 10684 10684 10684 10684 10684 10683 10683 10683 10682 10682 10681 10680 10679 10678 10677 10676 10675 10674 10673 10672 10671 10670 10669 10668 10667 10666 10666 10665 10664 10663 10662 10661 10660 10659 10657 10656 10654 10653 10651 10650 10648 10646 10645 10642 10641 10639 10637 10635 10632 10633 10632 10628 10625 10622 10621 10620 10619 10617 10613 10607 10604 10607 10608 10607 10604 10600 10596 10594 10591 10588 10584 10581 10578 10575 10571 10569
10677 10677 10677 10677 10678 10678 10679 10679 10679 10680 10680 10680 10680 10681 10681 10681 10681 10681 10680 10680 10680 10679 10678 10678 10677 10676 10675 10674 10674 10673 10672 10671 10671 10670 10669 10668 10668 10667 10666 10665 10664 10663 10662 10661 10659 10658 10657 10655 10653 10652 10650 10649 10647 10645 10643 10641 10638 10637 10635 10632 10629 10628 10627 10626 10622 10618 10617 10616 10615 10613 10611 10607 10600 10597 10598 10598 10597 10594 10591 10587 10584 10581 10578 10574 10570 10566 10562 10559
10674 10674 10674 10675 10675 10675 10676 10676 10677 10677 10677 10678 10678 10679 10679 10679 10679 10679 10678 10678 10678 10677 10677 10676 10676 10675 10675 10674 10673 10673 10672 10671 10671 10670 10670 10669 10668 10667 10666 10665 10664 10663 10661 10660 10659 10657 10656 10654 10652 10651 10649 10647 10646 10644 10641 10639 10636 10634 10632 10629 10627 10625 10622 10622 10619 10615 10612 10610 10609 10608 10605 10603 10599 10593 10590 10588 10586 10584 10582 10579 10575 10572 10569 10565 10561 10557 10553 10548
10672 10672 10673 10673 10673 10674 10674 10675 10675 10676 10676 10677 10677 10677 10677 10677 10678 10677 10677 10677 10677 10676 10676 10676 10676 10676 10675 10674 10674 10673 10673 10672 10672 10671 10670 10670 10669 10668 10667 10665 10664 10662 10661 10660 10658 10656 10655 10653 10651 10649 10647 10645 10643 10642 10639 10636 10634 10632 10629 10626 10624 10622 10618 10616 10614 10611 10608 10604 10602 10601 10599 10596 10594 10591 10586 10582 10578 10575 10572 10568 10564 10561 10557 10553 10550 10546 10542 10538
10670 10671 10671 10672 10672 10673 10674 10674 10674 10675 10675 10676 10676 10676 10677 10677 10677 10677 10677 10677 10677 10677 10677 10677 10677 10677 10676 10676 10675 10675 10674 10674 10673 10672 10671 10670 10669 10668 10666 10665 10663 10662 10660 10659 10657 10655 10653 10652 10650 10647 10646 10644 10642 10639 10637 10634 10631 10628 10626 10623 10619 10618 10616 10611 10608 10604 10601 10599 10595 10593 10592 10590 10588 10586 10582 10576 10571 10567 10563 10559 10554 10550 10545 10540 10536 10534 10531 10528
10670 10670 10671 10671 10672 10673 10674 10674 10675 10675 10676 10676 10676 10677 10677 10677 10677 10678 10678 10678 10678 10678 10678 10678 10678 10678 10678 10677 10677 10676 10675 10675 10674 10673 10672 10670 10669 10667 10666 10665 10663 10662 10660 10658 10656 10654 10652 10650 10648 10646 10643 10641 10639 10636 10633 10630 10628 10624 10621 10619 10614 10611 10611 10608 10605 10599 10594 10591 10588 10584 10582 10582 10580 10577 10574 10568 10562 10557 10552 10548 10544 10539 10534 10529 10525 10522 10520 10518
10670 10670 10671 10671 10672 10673 10674 10675 10675 10676 10676 10677 10677 10678 10678 10678 10679 10679 10680 10680 10680 10680 10680 10680 10680 10680 10679 10679 10678 10677 10676 10675 10674 10673 10672 10670 10669 10667 10666 10664 10663 10661 10659 10657 10655 10653 10651 10648 10645 10643 10640 10638 10635 10633 10630 10626 10623 10621 10617 10615 10611 10606 10602 10601 10599 10596 10591 10584 10579 10575 10570 10569 10570 10566 10561 10557 10551 10545 10540 10535 10531 10527 10524 10519 10515 10512 10509 10507
10671 10672 10672 10673 10673 10674 10675 10675 10676 10677 10678 10679 10679 10680 10680 10681 10681 10682 10682 10682 10683 10682 10682 10682 10681 10681 10680 10679 10679 10678 10677 10676 10674 10673 10672 10670 10669 10667 10665 10663 10661 10660 10658 10656 10653 10650 10648 10645 10642 10639 10636 10633 10631 10628 10625 10622 10618 10616 10612 10608 10607 10602 10595 10591 10590 10588 10585 10580 10574 10567 10559 10556 10557 10553 10547 10544 10538 10532 10528 10522 10516 10513 10510 10507 10504 10501 10498 10495
10674 10674 10675 10675 10676 10676 10677 10678 10679 10679 10680 10681 10682 10683 10683 10684 10684 10684 10684 10684 10684 10684 10683 10683 10682 10682 10681 10680 10679 10678 10677 10676 10675 10673 10671 10670 10668 10666 10664 10662 10660 10657 10655 10653 10651 10648 10645 10642 10639 10635 10632 10628 10625 10622 10619 10616 10612 10609 10605 10601 10598 10596 10590 10582 10578 10578 10578 10575 10569 10563 10553 10544 10542 10539 10532 10529 10525 10520 10516 10511 10504 10499 10496 10494 10492 10489 10486 10484
10677 10678 10678 10679 10680 10680 10680 10681 10681 10682 10682 10683 10684 10685 10685 10686 10686 10686 10686 10686 10686 10685 10684 10684 10683 10683 10682 10681 10680 10679 10677 10676 10674 10673 10671 10669 10666 10664 10662 10660 10658 10655 10652 10650 10647 10644 10640 10637 10633 10629 10625 10621 10617 10614 10611 10608 10604 10600 10597 10593 10589 10586 10584 10576 10568 10564 10564 10565 10561 10556 10549 10536 10527 10522 10517 10512 10510 10506 10502 10498 10491 10487 10485 10481 10480 10478 10476 10473
10681 10681 10682 10682 10683 10683 10684 10684 10684 10685 10685 10686 10687 10687 10687 10687 10687 10687 10688 10688 10687 10686 10686 10685 10685 10684 10683 10682 10680 10679 10677 10675 10673 10671 10669 10667 10664 10662 10660 10657 10654 10651 10648 10645 10642 10638 10634 10630 10626 10622 10618 10613 10609 10606 10603 10600 10597 10593 10589 10586 10581 10576 10573 10570 10563 10554 10550 10549 10548 10545 10540 10529 10514 10504 10499 10494 10492 10490 10486 10482 10478 10474 10473 10471 10469 10468 10465 10462
10684 10684 10685 10686 10686 10686 10687 10687 10688 10688 10688 10688 10689 10689 10689 10689 10689 10689 10689 10689 10689 10688 10687 10686 10685 10684 10683 10681 10680 10678 10675 10673 10671 10669 10667 10664 10661 10659 10656 10653 10650 10646 10643 10639 10636 10632 10628 10623 10619 10615 10610 10606 10602 10598 10594 10590 10587 10584 10579 10575 10571 10565 10560 10558 10555 10549 10542 10536 10533 10530 10528 10522 10505 10488 10482 10476 10472 10472 10469 10466 10464 10462 10461 10461 10459 10456 10451 10446
10687 10688 10689 10689 10689 10689 10690 10691 10691 10691 10691 10691 10692 10691 10692 10692 10692 10691 10691 10690 10689 10688 10687 10686 10685 10683 10681 10680 10678 10676 10673 10671 10668 10665 10662 10659 10657 10654 10651 10648 10644 10641 10637 10633 10630 10625 10621 10617 10612 10608 10604 10599 10595 10591 10586 10581 10577 10573 10568 10563 10558 10554 10549 10544 10541 10539 10535 10528 10519 10514 10512 10512 10498 10474 10466 10464 10455 10454 10454 10452 10454 10453 10450 10448 10444 10438 10431 10426
10691 10691 10692 10692 10692 10693 10694 10694 10694 10694 10694 10694 10694 10694 10693 10693 10692 10692 10691 10690 10689 10687 10686 10684 10683 10681 10679 10677 10675 10672 10670 10667 10665 10661 10657 10654 10651 10648 10645 10642 10638 10635 10631 10627 10623 10618 10614 10609 10604 10600 10596 10591 10586 10582 10578 10573 10569 10564 10558 10552 10547 10542 10538 10533 10528 10523 10521 10516 10507 10500 10494 10496 10489 10461 10449 10454 10447 10442 10443 10443 10444 10443 10438 10431 10423 10417 10412 10409
10694 10695 10695 10696 10696 10697 10697 10697 10697 10696 10696 10696 10695 10695 10694 10693 10693 10692 10691 10690 10688 10686 10685 10683 10681 10679 10677 10675 10672 10669 10666 10663 10659 10657 10653 10649 10646 10643 10639 10636 10632 10628 10624 10620 10615 10610 10606 10602 10596 10592 10587 10583 10578 10573 10569 10563 10559 10555 10548 10543 10536 10531 10526 10521 10515 10509 10506 10501 10492 10486 10477 10476 10473 10446 10431 10442 10443 10438 10437 10433 10430 10427 10419 10409 10402 10399 10397 10396
10698 10698 10699 10699 10699 10699 10699 10699 10698 10698 10697 10697 10696 10695 10694 10693 10692 10691 10690 10688 10686 10685 10683 10681 10679 10677 10675 10672 10669 10666 10662 10659 10655 10651 10648 10645 10642 10638 10634 10630 10626 10622 10617 10612 10608 10603 10599 10594 10589 10583 10577 10573 10568 10563 10559 10553 10549 10543 10537 10532 10525 10520 10515 10508 10503 10497 10493 10488 10477 10471 10463 10458 10455 10431 10415 10428 10435 10431 10428 10423 10417 10407 10395 10388 10384 10383 10382 10379
10701 10701 10701 10701 10701 10701 10700 10700 10699 10698 10697 10697 10696 10695 10694 10692 10691 10690 10688 10687 10685 10682 10680 10678 10675 10673 10670 10667 10664 10661 10658 10655 10652 10648 10644 10641 10637 10634 10630 10626 10622 10617 10611 10606 10601 10596 10591 10585 10579 10574 10567 10560 10555 10551 10547 10541 10537 10532 10525 10520 10513 10508 10504 10497 10491 10485 10481 10474 10463 10457 10449 10441 10436 10419 10407 10415 10420 10416 10413 10410 10403 10390 10379 10375 10371 10368 10364 10359
10703 10703 10702 10702 10702 10701 10700 10700 10699 10698 10697 10696 10695 10694 10692 10691 10689 10688 10686 10685 10683 10680 10678 10675 10672 10670 10667 10664 10661 10657 10654 10651 10648 10645 10641 10637 10634 10630 10626 10622 10617 10611 10606 10599 10592 10587 10581 10575 10569 10563 10558 10551 10545 10540 10535 10530 10525 10520 10514 10510 10505 10498 10493 10487 10479 10473 10469 10461 10450 10443 10436 10425 10418 10408 10401 10401 10401 10398 10394 10392 10387 10377 10367 10361 10355 10350 10346 10341
10704 10704 10703 10702 10702 10701 10700 10699 10698 10697 10696 10695 10694 10692 10691 10689 10687 10686 10684 10682 10680 10678 10675 10672 10670 10667 10664 10661 10657 10653 10650 10646 10643 10639 10635 10630 10626 10622 10617 10612 10606 10599 10593 10585 10579 10574 10569 10565 10560 10554 10549 10545 10539 10531 10524 10519 10513 10508 10502 10498 10496 10491 10485 10480 10471 10464 10460 10452 10441 10433 10426 10414 10404 10398 10394 10388 10383 10379 10371 10368 10367 10361 10352 10345 10338 10333 10328 10323
10704 10704 10703 10703 10702 10701 10700 10699 10698 10696 10695 10694 10692 10691 10689 10687 10686 10684 10682 10680 10677 10675 10673 10670 10667 10663 10660 10657 10653 10649 10645 10641 10637 10633 10629 10624 10619 10614 10609 10605 10600 10594 10588 10581 10574 10566 10560 10555 10550 10545 10540 10535 10532 10526 10517 10509 10502 10496 10491 10485 10481 10478 10476 10474 10466 10459 10454 10447 10435 10425 10418 10409 10394 10388 10387 10380 10373 10367 10358 10350 10345 10340 10334 10329 10324 10318 10313 10307
10705 10704 10703 10703 10702 10701 10699 10698 10697 10695 10694 10693 10691 10689 10687 10685 10684 10682 10680 10677 10675 10672 10669 10666 10663 10659 10656 10653 10649 10645 10642 10638 10634 10629 10624 10620 10615 10611 10606 10601 10597 10591 10585 10580 10573 10563 10554 10547 10541 10535 10530 10525 10522 10519 10514 10507 10498 10489 10481 10475 10468 10461 10459 10459 10456 10450 10447 10444 10434 10419 10412 10405 10390 10380 10378 10371 10364 10357 10349 10340 10330 10322 10316 10311 10307 10302 10297 10292
10705 10704 10703 10702 10701 10700 10699 10697 10696 10694 10693 10691 10689 10687 10685 10684 10682 10679 10677 10674 10671 10668 10665 10662 10658 10655 10652 10648 10645 10641 10637 10633 10628 10624 10619 10614 10610 10605 10600 10595 10590 10584 10578 10573 10567 10559 10549 10542 10537 10531 10524 10518 10512 10507 10505 10500 10491 10481 10471 10463 10456 10447 10440 10438 10435 10430 10427 10432 10430 10416 10406 10400 10387 10379 10373 10363 10355 10345 10336 10330 10321 10312 10303 10295 10290 10285 10279 10274
10704 10703 10702 10701 10700 10699 10698 10696 10694 10693 10690 10688 10687 10685 10683 10681 10678 10676 10673 10671 10668 10665 10662 10659 10656 10652 10648 10645 10641 10636 10632 10627 10623 10619 10614 10610 10605 10600 10595 10590 10585 10579 10573 10567 10562 10556 10545 10533 10528 10522 10514 10509 10503 10496 10494 10489 10479 10471 10461 10453 10447 10438 10428 10421 10417 10410 10402 10405 10413 10407 10397 10389 10378 10374 10366 10354 10345 10335 10325 10318 10309 10299 10290 10282 10275 10269 10263 10258
10703 10702 10701 10700 10699 10697 10696 10694 10692 10690 10688 10686 10684 10682 10679 10677 10675 10673 10670 10668 10665 10662 10659 10656 10653 10649 10645 10641 10636 10632 10627 10623 10618 10614 10609 10605 10601 10596 10591 10586 10581 10575 10570 10564 10558 10554 10545 10529 10519 10513 10503 10498 10494 10486 10481 10477 10468 10459 10452 10443 10437 10429 10419 10408 10402 10397 10387 10384 10391 10388 10382 10376 10366 10362 10356 10341 10332 10325 10315 10307 10298 10289 10279 10270 10263 10256 10249 10243
10702 10701 10699 10698 10697 10695 10693 10691 10689 10688 10686 10684 10681 10679 10677 10675 10673 10670 10667 10664 10661 10658 10656 10652 10648 10644 10640 10636 10631 10627 10623 10618 10614 10609 10605 10601 10597 10592 10588 10582 10577 10571 10565 10560 10554 10549 10544 10530 10514 10506 10496 10489 10487 10481 10471 10464 10454 10446 10439 10432 10425 10419 10411 10399 10388 10381 10374 10371 10373 10371 10366 10362 10353 10347 10341 10331 10322 10315 10307 10298 10290 10282 10272 10262 10255 10248 10240 10232
10701 10699 10698 10696 10694 10693 10691 10689 10687 10685 10683 10681 10679 10678 10676 10673 10670 10667 10664 10661 10658 10655 10652 10648 10644 10639 10635 10631 10627 10623 10619 10614 10610 10606 10602 10598 10594 10589 10585 10579 10573 10567 10560 10554 10548 10542 10539 10530 10513 10500 10490 10482 10478 10474 10465 10455 10444 10437 10429 10419 10411 10404 10398 10391 10379 10364 10354 10351 10350 10348 10348 10345 10336 10326 10319 10313 10308 10302 10297 10290 10282 10274 10265 10256 10248 10241 10234 10224
10700 10698 10696 10694 10692 10690 10688 10686 10684 10682 10681 10680 10679 10676 10673 10670 10667 10664 10661 10659 10655 10652 10648 10644 10640 10636 10632 10628 10624 10620 10616 10612 10608 10604 10600 10595 10591 10585 10579 10574 10567 10561 10554 10547 10542 10534 10529 10525 10512 10494 10482 10474 10469 10466 10460 10450 10440 10433 10424 10413 10402 10392 10383 10379 10372 10355 10338 10331 10324 10318 10321 10323 10315 10304 10295 10289 10285 10279 10276 10273 10267 10259 10251 10244 10236 10229 10223 10216
10698 10696 10694 10692 10690 10688 10686 10684 10683 10682 10681 10679 10676 10672 10670 10667 10665 10662 10659 10656 10653 10649 10645 10641 10637 10633 10629 10625 10621 10617 10614 10610 10606 10601 10597 10592 10587 10580 10573 10567 10560 10554 10547 10539 10533 10526 10518 10515 10508 10493 10478 10468 10461 10456 10449 10439 10430 10425 10419 10408 10396 10386 10375 10368 10366 10354 10335 10321 10308 10297 10298 10303 10296 10284 10276 10270 10263 10257 10250 10245 10241 10236 10229 10223 10217 10210 10205 10201
10696 10694 10692 10690 10689 10687 10685 10683 10682 10681 10678 10675 10672 10670 10668 10665 10662 10660 10657 10653 10649 10645 10641 10638 10634 10630 10626 10622 10618 10615 10611 10607 10602 10596 10592 10587 10582 10575 10567 10561 10554 10547 10540 10531 10523 10517 10509 10505 10499 10488 10475 10464 10457 10450 10439 10427 10419 10413 10408 10399 10387 10376 10365 10355 10352 10350 10339 10324 10305 10288 10284 10287 10281 10269 10262 10256 10248 10240 10232 10222 10216 10211 10202 10194 10189 10185 10182 10179
10694 10692 10691 10689 10687 10685 10684 10682 10680 10678 10676 10673 10671 10669 10666 10664 10660 10657 10654 10650 10646 10642 10638 10635 10631 10627 10623 10619 10615 10611 10607 10602 10597 10591 10585 10579 10574 10568 10560 10554 10547 10539 10532 10525 10516 10507 10499 10495 10491 10481 10468 10455 10449 10443 10431 10419 10411 10404 10397 10388 10376 10366 10355 10342 10332 10329 10328 10320 10304 10287 10280 10278 10269 10254 10246 10240 10232 10224 10215 10204 10194 10187 10178 10167 10161 10160 10159 10155
10693 10691 10690 10688 10686 10684 10682 10680 10679 10676 10674 10672 10669 10667 10664 10662 10658 10654 10650 10646 10643 10639 10636 10632 10628 10624 10620 10616 10611 10607 10602 10597 10591 10585 10578 10572 10566 10560 10553 10547 10540 10533 10525 10517 10509 10499 10489 10484 10480 10474 10465 10455 10449 10442 10431 10417 10406 10399 10393 10384 10373 10363 10351 10339 10324 10313 10308 10301 10288 10274 10269 10269 10259 10243 10233 10225 10217 10210 10201 10190 10179 10169 10162 10155 10148 10144 10141 10138
10692 10690 10689 10687 10685 10683 10681 10679 10677 10675 10673 10670 10667 10665 10662 10659 10655 10651 10648 10644 10640 10637 10633 10629 10625 10621 10617 10612 10608 10603 10598 10592 10586 10579 10573 10567 10560 10553 10547 10540 10533 10526 10519 10511 10503 10492 10481 10472 10463 10455 10447 10444 10445 10441 10434 10424 10410 10397 10388 10378 10368 10358 10346 10334 10322 10309 10300 10293 10281 10263 10254 10258 10252 10237 10226 10217 10207 10199 10191 10181 10170 10158 10151 10147 10142 10136 10131 10125
10690 10689 10687 10685 10684 10682 10680 10679 10676 10673 10671 10668 10666 10663 10659 10656 10652 10649 10645 10642 10638 10634 10630 10626 10622 10618 10613 10609 10604 10598 10593 10587 10580 10574 10567 10561 10555 10547 10540 10534 10528 10521 10513 10505 10498 10488 10477 10465 10453 10439 10423 10414 10414 10411 10406 10404 10397 10385 10374 10363 10353 10344 10334 10323 10312 10301 10290 10285 10280 10260 10242 10244 10243 10229 10219 10211 10201 10193 10184 10173 10162 10151 10143 10138 10133 10127 10119 10111
10689 10687 10685 10684 10683 10681 10679 10677 10675 10672 10669 10667 10663 10660 10657 10653 10649 10646 10642 10639 10635 10630 10627 10622 10618 10614 10609 10603 10598 10592 10586 10581 10575 10568 10561 10555 10549 10542 10535 10528 10522 10515 10507 10499 10492 10483 10474 10463 10451 10438 10419 10404 10400 10394 10386 10382 10377 10369 10361 10352 10342 10331 10320 10308 10294 10283 10272 10266 10268 10256 10234 10226 10224 10215 10208 10201 10191 10182 10172 10161 10151 10143 10136 10131 10124 10115 10106 10098
10688 10686 10685 10683 10681 10679 10677 10675 10673 10670 10667 10664 10661 10658 10654 10651 10647 10643 10639 10635 10631 10627 10623 10619 10614 10610 10605 10599 10593 10587 10581 10574 10569 10563 10557 10550 10542 10536 10529 10523 10516 10509 10501 10494 10486 10478 10469 10461 10452 10440 10421 10405 10398 10391 10382 10375 10368 10360 10351 10342 10333 10321 10310 10298 10283 10268 10255 10246 10244 10242 10230 10215 10206 10200 10193 10184 10173 10165 10156 10146 10138 10132 10128 10122 10114 10105 10098 10091
10687 10686 10684 10682 10680 10678 10676 10674 10671 10668 10665 10662 10659 10655 10652 10648 10644 10640 10636 10632 10629 10625 10621 10616 10611 10607 10602 10596 10591 10585 10579 10573 10566 10560 10554 10547 10540 10532 10524 10517 10510 10503 10496 10488 10480 10473 10465 10456 10450 10442 10423 10404 10395 10386 10377 10370 10362 10352 10342 10333 10324 10314 10302 10290 10275 10256 10242 10232 10225 10222 10218 10205 10190 10184 10180 10169 10155 10146 10138 10129 10123 10120 10117 10110 10102 10095 10089 10083
10687 10685 10683 10681 10679 10677 10674 10672 10669 10666 10663 10660 10656 10653 10649 10645 10641 10638 10634 10630 10626 10622 10618 10613 10609 10604 10599 10593 10587 10583 10578 10573 10567 10560 10552 10545 10538 10531 10522 10514 10505 10497 10489 10481 10473 10466 10459 10451 10444 10439 10425 10405 10392 10380 10369 10362 10355 10344 10334 10324 10315 10308 10296 10281 10266 10248 10235 10229 10220 10210 10204 10195 10179 10167 10163 10155 10141 10131 10121 10112 10110 10110 10105 10096 10089 10085 10079 10073
10686 10684 10682 10680 10678 10675 10673 10670 10667 10664 10661 10658 10654 10650 10646 10643 10639 10636 10632 10628 10624 10619 10615 10610 10606 10601 10595 10589 10583 10577 10572 10567 10561 10556 10548 10541 10534 10526 10518 10510 10500 10490 10481 10473 10465 10457 10451 10444 10436 10431 10422 10406 10393 10379 10363 10354 10348 10337 10327 10318 10308 10301 10294 10281 10266 10247 10230 10223 10218 10205 10194 10187 10174 10158 10149 10140 10129 10121 10110 10099 10099 10100 10092 10084 10080 10074 10069 10063
10685 10683 10681 10679 10677 10674 10671 10668 10665 10662 10659 10655 10651 10648 10644 10641 10637 10634 10629 10625 10621 10617 10613 10608 10602 10597 10591 10585 10579 10572 10566 10560 10553 10547 10540 10534 10527 10518 10510 10502 10494 10486 10476 10467 10458 10449 10441 10434 10427 10421 10415 10403 10391 10379 10364 10351 10343 10332 10321 10312 10302 10295 10289 10279 10262 10239 10218 10208 10206 10198 10183 10171 10161 10148 10137 10127 10116 10108 10097 10088 10090 10090 10081 10074 10071 10066 10060 10055
10684 10682 10680 10678 10675 10673 10670 10667 10664 10660 10656 10653 10649 10645 10642 10639 10635 10631 10627 10623 10619 10615 10610 10605 10599 10594 10588 10582 10576 10569 10562 10555 10547 10540 10533 10525 10518 10509 10501 10493 10486 10479 10471 10462 10453 10443 10433 10424 10415 10410 10405 10395 10384 10374 10361 10346 10337 10328 10317 10305 10294 10286 10279 10270 10254 10231 10211 10196 10186 10179 10168 10158 10150 10140 10130 10121 10113 10101 10089 10082 10084 10083 10075 10068 10063 10057 10053 10048